Date,Time,M04 Pyranometer 0 - 2000 W/m² (AVG),M04 Precipitation (SUM),M04 WIND SPEED (AVG),M04 Relative Humidity (AVG),ΖΗΡΟΣ WIND DIRECTION (AVG),M04 Barometric Pressure (AVG),ΖΗΡΟΣ Rain Duration (SUM),M04 Temperature (AVG),ΖΗΡΟΣ Daily ETo
02/08/2015,00:00:00,325.5,0.0,4.34,73.4,342.9,946.2,0.0,23.8,0.00
03/08/2015,00:00:00,325.5,0.0,4.34,73.4,342.9,946.2,0.0,23.8,5.48
04/08/2015,00:00:00,324.8,0.0,4.93,72.8,346.1,945.9,0.0,23.8,5.78
05/08/2015,00:00:00,325.5,0.0,4.63,67.1,347.1,944.5,0.0,24.4,6.17
06/08/2015,00:00:00,331.8,0.0,2.91,58.1,295.2,943.5,0.0,25.6,6.60
07/08/2015,00:00:00,299.0,0.0,3.08,69.2,301.1,942.6,0.0,24.9,5.77
08/08/2015,00:00:00,228.9,3.8,2.27,71.9,311.6,943.6,30.1,24.1,4.38
09/08/2015,00:00:00,202.0,10.0,2.26,79.2,309.9,946.3,120.0,23.1,3.53
10/08/2015,00:00:00,166.9,2.2,1.76,80.6,302.2,947.2,89.9,22.5,2.56
11/08/2015,00:00:00,263.3,0.0,2.25,73.8,318.9,946.3,0.0,23.2,3.73
12/08/2015,00:00:00,320.1,0.0,1.49,62.3,309.6,946.6,0.0,24.2,5.54
13/08/2015,00:00:00,307.6,0.0,2.03,58.5,324.7,947.5,0.0,24.8,5.78
14/08/2015,00:00:00,292.8,0.0,1.59,47.4,175.5,945.4,0.0,26.1,5.70
15/08/2015,00:00:00,231.9,0.6,1.71,55.4,130.4,944.8,60.0,25.3,4.71
16/08/2015,00:00:00,233.7,0.0,1.23,69.2,188.7,943.8,0.0,24.6,4.19
17/08/2015,00:00:00,290.5,0.0,2.35,69.6,323.0,944.4,0.0,24.6,4.88
18/08/2015,00:00:00,301.8,0.0,1.48,45.7,282.2,945.2,0.0,26.4,5.86
19/08/2015,00:00:00,315.2,0.0,2.50,51.0,293.0,944.9,0.0,25.4,6.37
20/08/2015,00:00:00,247.3,0.0,2.34,64.5,313.7,945.3,0.0,23.8,4.98
21/08/2015,00:00:00,314.4,0.0,1.92,49.1,299.1,947.6,0.0,25.6,5.99
22/08/2015,00:00:00,308.5,0.0,2.93,64.3,346.4,946.4,0.0,24.9,5.74
23/08/2015,00:00:00,303.7,0.0,2.89,76.4,340.5,944.8,0.0,23.2,4.93
24/08/2015,00:00:00,295.7,0.0,3.38,76.8,341.1,944.5,0.0,22.4,4.56
25/08/2015,00:00:00,293.0,0.0,3.75,73.5,343.8,944.8,0.0,21.2,4.49
26/08/2015,00:00:00,299.6,0.0,3.88,75.3,341.0,945.3,0.0,21.3,4.55
27/08/2015,00:00:00,303.6,0.0,3.85,72.6,342.7,945.5,0.0,21.7,5.00
28/08/2015,00:00:00,301.7,0.0,4.08,71.7,345.8,946.9,0.0,21.8,5.11
29/08/2015,00:00:00,303.0,0.0,4.36,67.7,345.4,948.8,0.0,22.5,5.49
30/08/2015,00:00:00,305.0,0.0,4.58,58.8,349.0,949.1,0.0,23.0,6.20
31/08/2015,00:00:00,303.2,0.0,4.11,61.1,347.5,948.6,0.0,23.0,5.85
01/09/2015,00:00:00,295.9,0.0,4.41,45.9,345.4,947.8,0.0,24.9,7.26
02/09/2015,00:00:00,297.1,0.0,2.16,46.7,238.0,947.2,0.0,25.2,5.95
03/09/2015,00:00:00,298.1,0.0,1.75,59.5,173.8,946.9,0.0,23.6,5.16
04/09/2015,00:00:00,293.6,0.0,1.65,70.6,211.3,946.2,0.0,23.1,4.89
05/09/2015,00:00:00,285.5,0.0,1.90,65.8,319.1,946.5,0.0,24.0,5.26
06/09/2015,00:00:00,287.3,0.0,3.36,38.9,332.0,948.1,0.0,26.7,7.12
07/09/2015,00:00:00,289.0,0.0,2.05,31.8,309.5,948.2,0.0,28.5,6.51
08/09/2015,00:00:00,260.2,0.0,2.33,33.3,342.3,947.3,0.0,29.5,6.51
09/09/2015,00:00:00,264.3,0.0,3.82,52.1,347.7,946.4,0.0,25.9,6.34
10/09/2015,00:00:00,271.2,0.0,4.14,76.2,344.8,947.2,0.0,22.7,4.54
11/09/2015,00:00:00,263.7,0.0,1.47,43.9,161.7,948.6,0.0,26.9,5.32
12/09/2015,00:00:00,256.3,0.0,2.35,49.9,217.8,950.3,0.0,26.7,5.44
13/09/2015,00:00:00,277.5,0.0,2.67,53.8,314.9,949.1,0.0,24.3,5.38
14/09/2015,00:00:00,234.9,0.0,2.64,79.7,338.4,948.2,0.0,20.6,3.66
15/09/2015,00:00:00,271.7,0.0,2.70,80.8,341.0,948.7,0.0,20.8,4.02
16/09/2015,00:00:00,170.3,0.0,2.82,82.8,341.4,948.2,0.0,20.5,2.94
17/09/2015,00:00:00,267.6,0.0,4.02,80.0,343.6,946.9,0.0,20.7,4.15
18/09/2015,00:00:00,257.4,0.0,5.21,76.3,348.2,945.8,0.0,21.3,4.37
19/09/2015,00:00:00,252.7,0.0,4.27,75.2,345.4,946.0,0.0,21.5,4.38
20/09/2015,00:00:00,195.8,0.0,1.68,71.7,217.8,947.0,0.0,22.0,3.36
21/09/2015,00:00:00,225.0,0.0,1.23,78.3,197.5,945.7,0.1,21.7,3.54
22/09/2015,00:00:00,128.0,19.0,1.49,83.5,154.9,943.2,210.0,19.9,2.07
23/09/2015,00:00:00,105.2,3.0,2.15,90.8,207.0,939.3,209.9,18.8,1.71
24/09/2015,00:00:00,229.4,0.0,2.01,80.3,214.2,944.1,0.0,19.5,3.80
25/09/2015,00:00:00,257.8,0.0,1.65,75.3,128.5,948.7,0.0,20.0,3.92
26/09/2015,00:00:00,259.0,0.0,1.54,74.4,116.8,948.6,0.0,20.6,4.10
27/09/2015,00:00:00,206.8,0.0,1.40,77.8,141.2,946.8,0.0,20.7,3.16
28/09/2015,00:00:00,167.3,0.0,2.17,82.3,280.1,948.0,0.0,20.6,2.35
29/09/2015,00:00:00,118.6,0.2,1.68,87.4,273.2,948.9,30.0,19.8,2.08
30/09/2015,00:00:00,203.3,0.0,2.03,82.7,340.8,948.8,0.0,19.4,3.26
01/10/2015,00:00:00,221.5,0.0,3.17,82.2,341.3,948.5,0.0,18.4,3.31
02/10/2015,00:00:00,201.8,0.0,3.81,84.8,336.2,950.9,0.0,17.5,2.71
03/10/2015,00:00:00,253.0,0.0,3.83,79.0,343.0,953.6,0.0,17.3,3.46
04/10/2015,00:00:00,176.9,0.0,1.80,80.5,319.8,955.3,0.0,17.5,2.96
05/10/2015,00:00:00,253.7,0.0,3.51,76.2,332.3,953.6,0.0,17.6,3.58
06/10/2015,00:00:00,241.1,0.0,2.35,79.9,290.7,948.9,0.0,18.8,3.41
07/10/2015,00:00:00,188.3,0.0,1.56,77.9,263.3,944.3,0.0,19.2,3.07
08/10/2015,00:00:00,135.7,0.0,0.93,79.6,209.2,943.9,0.0,19.0,2.04
09/10/2015,00:00:00,166.9,0.0,1.43,82.0,241.7,945.4,0.0,19.6,2.40
10/10/2015,00:00:00,198.2,0.0,1.91,80.1,322.6,949.4,0.0,19.2,3.02
11/10/2015,00:00:00,212.8,0.0,2.00,68.9,243.1,950.2,0.0,20.4,3.57
12/10/2015,00:00:00,90.6,0.0,2.11,67.5,160.7,948.2,0.0,20.9,2.12
13/10/2015,00:00:00,177.3,0.0,1.59,83.3,202.4,947.7,0.0,20.6,2.78
14/10/2015,00:00:00,245.0,0.0,1.31,77.6,274.3,949.0,0.0,18.6,3.69
15/10/2015,00:00:00,228.6,0.0,2.85,79.3,341.2,950.0,0.0,18.1,3.28
16/10/2015,00:00:00,229.0,0.0,2.74,78.2,306.7,950.5,0.0,17.5,3.35
17/10/2015,00:00:00,222.6,0.0,3.13,80.8,286.8,950.3,0.0,18.0,3.30
18/10/2015,00:00:00,176.5,0.0,4.23,83.5,291.8,950.8,0.0,17.6,2.63
19/10/2015,00:00:00,205.7,0.0,3.99,69.6,322.9,950.9,0.0,19.4,3.65
20/10/2015,00:00:00,196.5,0.0,1.47,56.9,133.9,949.7,0.0,20.4,3.39
21/10/2015,00:00:00,172.9,0.0,2.62,71.3,162.1,948.0,0.0,20.7,2.87
22/10/2015,00:00:00,135.3,0.0,1.40,85.0,181.4,946.7,0.0,19.7,1.94
23/10/2015,00:00:00,68.3,0.0,2.59,84.6,170.7,942.9,0.5,19.2,1.25
24/10/2015,00:00:00,42.7,22.8,3.73,92.5,193.6,939.7,779.5,16.9,0.55
25/10/2015,00:00:00,162.0,0.0,2.03,86.8,249.5,944.2,0.4,15.9,1.99
26/10/2015,00:00:00,118.3,24.8,2.86,92.7,343.9,946.5,599.6,14.3,1.42
27/10/2015,00:00:00,193.1,0.0,3.93,79.8,339.6,947.8,0.0,14.2,2.45
28/10/2015,00:00:00,180.2,0.0,3.38,79.8,338.7,948.2,0.0,14.5,2.34
29/10/2015,00:00:00,152.4,0.0,4.00,74.6,342.3,947.0,0.0,13.3,2.13
30/10/2015,00:00:00,199.8,0.0,3.27,74.5,342.9,947.6,0.0,13.6,2.74
31/10/2015,00:00:00,150.4,0.0,1.96,74.7,341.6,950.2,0.0,13.6,2.05
01/11/2015,00:00:00,122.4,0.0,2.08,80.5,343.2,953.2,0.0,14.2,1.79
02/11/2015,00:00:00,165.9,0.0,3.37,81.8,342.0,956.0,0.0,14.2,2.04
03/11/2015,00:00:00,198.9,0.0,3.95,76.7,344.4,955.6,0.0,13.8,2.62
04/11/2015,00:00:00,197.2,0.0,4.39,80.4,344.9,953.5,0.0,13.6,2.50
05/11/2015,00:00:00,195.3,0.0,4.40,82.5,346.0,950.4,0.0,13.6,2.46
06/11/2015,00:00:00,188.0,0.0,5.51,82.8,345.3,949.3,0.0,13.7,2.41
07/11/2015,00:00:00,190.9,0.0,3.65,83.1,308.1,950.7,0.0,13.6,2.33
08/11/2015,00:00:00,180.0,0.0,3.35,81.5,345.6,952.5,0.0,13.6,2.24
09/11/2015,00:00:00,202.9,0.0,4.31,79.3,341.6,953.5,0.0,13.2,2.61
10/11/2015,00:00:00,188.0,0.0,4.55,76.7,343.4,951.7,0.0,13.8,2.60
11/11/2015,00:00:00,186.2,0.0,3.33,65.0,331.7,950.7,0.0,15.4,3.24
12/11/2015,00:00:00,168.0,0.0,2.18,80.5,332.7,952.1,0.0,15.3,2.00
13/11/2015,00:00:00,177.2,0.0,2.71,81.2,321.4,955.3,0.0,15.1,2.34
14/11/2015,00:00:00,176.6,0.0,2.61,74.8,308.9,957.1,0.0,15.7,2.68
15/11/2015,00:00:00,152.8,0.0,3.39,77.6,311.7,954.1,0.0,15.7,2.29
16/11/2015,00:00:00,128.4,0.0,3.00,84.6,296.6,948.0,0.0,14.3,1.82
17/11/2015,00:00:00,153.0,0.0,3.06,82.0,340.3,945.2,0.0,13.8,1.97
18/11/2015,00:00:00,96.3,0.0,3.38,84.1,342.0,948.1,0.0,13.9,1.39
19/11/2015,00:00:00,173.5,0.0,2.83,81.8,311.2,950.8,0.0,14.0,2.16
20/11/2015,00:00:00,162.1,0.0,2.58,76.0,298.1,953.1,0.0,14.7,2.45
21/11/2015,00:00:00,137.5,0.0,1.35,73.2,89.6,952.2,0.0,13.6,1.83
22/11/2015,00:00:00,89.2,0.0,1.93,88.5,179.4,947.0,0.0,14.0,1.26
23/11/2015,00:00:00,67.0,0.0,2.85,87.7,186.0,948.3,0.0,15.1,0.95
24/11/2015,00:00:00,53.3,0.0,1.44,91.0,160.8,953.9,0.0,14.7,0.75
25/11/2015,00:00:00,165.0,0.0,1.24,75.4,116.6,954.9,0.0,14.2,2.34
26/11/2015,00:00:00,41.5,0.0,2.89,90.6,158.8,947.7,0.2,13.8,0.63
27/11/2015,00:00:00,93.2,10.4,4.46,87.1,191.8,940.0,359.8,14.1,1.51
28/11/2015,00:00:00,92.3,0.0,4.27,82.0,193.1,944.1,1.1,13.4,1.50
29/11/2015,00:00:00,70.2,2.6,4.45,80.7,197.0,946.5,120.0,13.2,1.20
30/11/2015,00:00:00,88.4,1.8,1.71,77.4,298.0,950.2,120.0,12.3,1.46
01/12/2015,00:00:00,104.8,2.2,2.73,79.3,333.2,951.5,89.9,10.3,1.25
02/12/2015,00:00:00,160.6,0.0,2.81,69.8,280.4,954.2,0.0,10.8,2.10
03/12/2015,00:00:00,127.7,0.0,1.86,76.6,310.5,954.6,0.0,12.5,1.75
04/12/2015,00:00:00,79.4,0.0,3.79,73.1,327.5,957.8,0.0,11.3,1.60
05/12/2015,00:00:00,163.7,0.0,5.64,70.4,344.9,959.3,0.0,10.1,2.36
06/12/2015,00:00:00,159.2,0.0,3.60,73.7,344.8,961.4,0.0,10.0,2.14
07/12/2015,00:00:00,161.8,0.0,4.59,80.7,341.5,962.5,0.0,10.0,1.83
08/12/2015,00:00:00,149.9,0.0,5.22,82.9,334.8,960.5,0.0,10.9,1.79
09/12/2015,00:00:00,146.3,0.0,3.97,83.0,346.4,958.9,0.0,11.0,1.73
10/12/2015,00:00:00,128.0,0.0,3.54,83.7,338.9,955.9,0.0,11.0,1.41
11/12/2015,00:00:00,119.7,0.0,1.78,76.6,328.7,954.9,0.0,10.9,1.44
12/12/2015,00:00:00,32.2,0.0,1.41,81.1,295.5,953.0,0.4,9.5,0.44
13/12/2015,00:00:00,41.4,23.8,3.59,88.4,341.6,948.2,569.6,8.3,0.61
14/12/2015,00:00:00,121.8,0.0,4.01,83.2,341.3,950.8,0.0,9.6,1.43
15/12/2015,00:00:00,136.7,0.0,2.42,83.4,281.5,952.9,0.0,10.5,1.57
16/12/2015,00:00:00,120.4,0.0,2.07,86.2,329.7,953.9,0.0,10.7,1.39
17/12/2015,00:00:00,112.4,0.0,2.46,79.6,339.5,952.3,0.0,9.7,1.39
18/12/2015,00:00:00,103.3,0.0,3.02,80.0,341.6,949.8,0.0,9.3,1.24
19/12/2015,00:00:00,86.5,0.0,3.89,81.6,344.6,950.8,0.0,9.0,1.12
20/12/2015,00:00:00,143.8,0.0,3.84,77.4,342.9,952.7,0.0,9.0,1.64
21/12/2015,00:00:00,85.7,0.0,3.45,86.6,345.4,957.5,0.0,9.9,1.02
22/12/2015,00:00:00,146.7,0.0,4.14,83.9,334.2,959.8,0.0,10.0,1.59
23/12/2015,00:00:00,145.4,0.0,3.88,81.2,343.2,958.9,0.0,9.8,1.80
24/12/2015,00:00:00,101.5,0.0,4.04,86.0,340.3,958.1,0.0,10.5,1.26
25/12/2015,00:00:00,148.3,0.0,3.70,80.9,276.3,959.3,0.0,11.3,1.65
26/12/2015,00:00:00,143.5,0.0,1.87,68.4,224.9,959.3,0.0,11.6,1.92
27/12/2015,00:00:00,135.4,0.0,4.09,85.1,329.9,957.9,0.0,10.9,1.60
28/12/2015,00:00:00,145.5,0.0,3.55,77.4,323.7,959.1,0.0,10.3,1.95
29/12/2015,00:00:00,84.8,0.0,3.10,89.1,127.0,957.8,0.0,10.4,0.92
30/12/2015,00:00:00,148.2,0.0,2.97,84.2,341.2,952.1,0.0,10.7,1.59
31/12/2015,00:00:00,96.4,0.0,3.93,75.9,346.6,950.1,0.1,9.1,1.28
01/01/2016,00:00:00,78.9,1.4,5.24,78.5,340.3,949.5,150.0,2.2,0.96
02/01/2016,00:00:00,50.9,3.0,3.23,75.8,337.7,953.5,120.2,1.1,0.68
03/01/2016,00:00:00,21.2,6.2,1.84,92.1,162.2,953.7,419.9,2.9,0.16
04/01/2016,00:00:00,47.8,5.6,2.95,94.8,156.1,951.2,239.9,7.2,0.39
05/01/2016,00:00:00,103.6,3.0,4.57,89.5,198.4,942.8,90.0,11.9,1.15
06/01/2016,00:00:00,47.9,0.4,3.84,93.6,190.7,943.2,30.0,12.7,0.40
07/01/2016,00:00:00,125.8,0.0,3.04,71.4,203.7,944.7,0.0,13.9,2.02
08/01/2016,00:00:00,112.2,0.2,3.46,65.0,208.7,935.7,30.0,12.6,2.12
09/01/2016,00:00:00,68.5,0.0,1.18,71.2,276.6,943.4,0.0,10.3,0.83
10/01/2016,00:00:00,147.0,0.0,1.18,86.0,149.7,950.5,0.0,10.0,1.78
11/01/2016,00:00:00,68.8,0.0,2.35,91.4,197.0,950.7,0.0,12.0,0.69
12/01/2016,00:00:00,156.2,0.0,1.41,73.5,169.7,951.4,0.0,13.1,2.14
13/01/2016,00:00:00,100.9,0.0,2.88,89.9,204.8,949.8,0.0,12.2,0.98
14/01/2016,00:00:00,93.7,0.0,2.55,83.1,222.3,947.3,0.0,12.3,0.98
15/01/2016,00:00:00,112.3,0.0,1.74,71.1,268.5,950.1,0.0,10.0,1.65
16/01/2016,00:00:00,162.3,0.0,2.83,76.3,183.9,951.0,0.0,9.4,1.95
17/01/2016,00:00:00,56.1,0.0,5.97,82.9,185.2,945.9,0.3,10.9,1.06
18/01/2016,00:00:00,15.9,10.0,5.60,88.4,190.3,934.3,449.9,9.6,0.59
19/01/2016,00:00:00,137.3,9.2,1.90,77.9,269.0,934.2,330.0,5.3,1.41
20/01/2016,00:00:00,106.1,4.2,1.83,88.7,299.7,946.8,330.0,3.7,1.10
21/01/2016,00:00:00,51.4,19.4,3.84,88.4,177.2,948.7,329.9,7.6,0.56
22/01/2016,00:00:00,153.3,2.2,2.32,88.0,286.8,949.1,119.9,8.5,1.54
23/01/2016,00:00:00,168.4,0.0,3.13,78.4,339.4,952.4,0.0,7.7,1.65
24/01/2016,00:00:00,51.3,0.0,4.27,69.4,337.1,953.3,0.1,3.8,1.07
25/01/2016,00:00:00,26.9,2.4,4.35,73.1,338.8,954.6,210.0,1.8,0.80
26/01/2016,00:00:00,20.2,1.2,3.36,71.6,330.1,956.2,149.9,2.4,0.70
27/01/2016,00:00:00,53.8,2.4,2.50,77.9,275.4,954.0,209.9,4.4,0.81
28/01/2016,00:00:00,95.7,0.0,3.87,75.7,339.2,957.2,0.0,5.0,1.13
29/01/2016,00:00:00,176.8,0.0,1.14,78.2,294.0,959.9,0.0,7.2,1.93
30/01/2016,00:00:00,116.3,0.0,1.26,85.2,249.9,959.7,0.0,9.8,1.26
31/01/2016,00:00:00,80.0,0.0,1.26,87.3,317.2,958.3,0.0,9.7,0.91
01/02/2016,00:00:00,186.5,0.0,1.97,75.8,303.1,955.6,0.0,10.3,2.34
02/02/2016,00:00:00,162.8,0.0,1.19,83.6,259.5,954.0,0.0,10.3,1.87
03/02/2016,00:00:00,172.5,0.0,3.51,77.1,344.5,957.2,0.0,11.4,2.06
04/02/2016,00:00:00,187.2,0.0,1.61,68.0,161.2,956.9,0.0,11.7,2.53
05/02/2016,00:00:00,66.8,0.0,2.96,91.0,189.6,952.1,0.4,10.4,0.76
06/02/2016,00:00:00,157.1,21.6,3.68,87.5,220.2,942.8,569.8,8.9,1.38
07/02/2016,00:00:00,141.8,1.8,5.08,72.2,331.5,948.1,239.8,4.8,1.48
08/02/2016,00:00:00,111.1,0.0,4.02,67.9,337.9,952.4,0.0,4.7,1.61
09/02/2016,00:00:00,164.3,0.0,2.59,74.8,328.3,954.0,0.0,6.3,1.92
10/02/2016,00:00:00,141.7,0.0,1.66,77.9,315.0,954.6,0.0,6.4,1.47
11/02/2016,00:00:00,134.0,0.0,2.90,88.1,243.6,950.8,0.0,8.1,1.28
12/02/2016,00:00:00,41.1,0.0,3.92,92.5,198.2,948.3,0.0,11.3,0.60
13/02/2016,00:00:00,185.3,0.0,1.96,78.1,210.0,949.7,0.0,11.6,2.52
14/02/2016,00:00:00,169.8,0.0,3.23,85.4,197.8,946.0,0.0,12.4,1.84
15/02/2016,00:00:00,98.6,0.0,1.74,67.7,202.4,947.2,0.0,14.2,1.67
16/02/2016,00:00:00,210.0,0.0,2.40,40.3,132.1,953.5,0.0,16.8,4.05
17/02/2016,00:00:00,192.5,0.0,2.63,29.9,99.6,959.8,0.0,18.4,4.48
18/02/2016,00:00:00,163.1,0.0,2.14,38.6,71.2,957.7,0.0,18.0,3.68
19/02/2016,00:00:00,155.5,0.0,2.82,56.9,132.3,949.1,0.0,16.2,3.00
20/02/2016,00:00:00,177.1,0.0,1.47,84.0,287.4,947.0,0.0,12.3,2.30
21/02/2016,00:00:00,219.2,0.0,2.00,74.7,231.3,949.5,0.1,13.0,2.91
22/02/2016,00:00:00,132.4,5.0,4.31,81.8,331.3,944.8,209.9,8.6,1.34
23/02/2016,00:00:00,168.1,0.0,3.92,74.4,338.4,949.0,0.0,10.2,2.18
24/02/2016,00:00:00,220.8,0.0,2.18,61.1,230.7,948.9,0.0,14.2,3.64
25/02/2016,00:00:00,44.6,0.0,2.42,93.5,196.1,946.2,0.0,10.9,0.46
26/02/2016,00:00:00,168.0,0.0,4.33,87.5,66.9,945.8,0.0,12.1,1.69
27/02/2016,00:00:00,128.5,0.0,1.38,88.3,198.6,945.2,0.0,11.8,1.48
28/02/2016,00:00:00,212.0,0.0,1.77,75.8,244.9,947.8,0.0,11.5,2.85
29/02/2016,00:00:00,222.5,0.0,2.62,78.9,159.9,953.1,0.0,10.4,2.56
01/03/2016,00:00:00,195.1,0.0,3.65,79.4,144.6,953.6,0.0,12.6,2.38
02/03/2016,00:00:00,225.1,0.0,3.46,65.0,200.4,947.9,0.0,15.3,3.60
03/03/2016,00:00:00,216.3,0.0,2.76,77.7,341.2,940.4,0.0,11.2,2.35
04/03/2016,00:00:00,231.9,0.0,2.87,78.2,222.4,938.7,0.2,10.7,2.94
05/03/2016,00:00:00,158.9,3.8,5.05,81.5,201.4,940.1,269.8,10.1,1.82
06/03/2016,00:00:00,209.9,0.0,1.33,67.8,217.6,946.2,0.0,9.6,2.67
07/03/2016,00:00:00,183.8,0.0,2.49,84.7,217.5,947.3,0.0,9.5,1.94
08/03/2016,00:00:00,81.7,0.0,3.47,90.0,177.7,944.9,0.0,10.1,0.92
09/03/2016,00:00:00,177.4,0.0,2.71,63.7,127.1,942.1,0.0,12.8,2.93
10/03/2016,00:00:00,134.5,0.0,3.03,74.8,140.3,937.3,0.0,13.3,2.31
11/03/2016,00:00:00,176.5,0.0,3.26,78.2,220.8,942.5,0.0,9.9,2.24
12/03/2016,00:00:00,254.1,0.0,2.18,64.4,200.5,947.7,0.0,10.8,3.22
13/03/2016,00:00:00,241.0,0.0,4.03,57.2,61.7,946.1,0.1,13.7,4.06
14/03/2016,00:00:00,124.0,11.8,3.28,75.7,123.5,939.9,150.1,12.9,2.11
15/03/2016,00:00:00,150.4,8.0,3.47,87.6,237.3,938.1,240.0,9.3,1.25
16/03/2016,00:00:00,130.4,4.2,2.44,86.2,323.9,945.2,209.9,7.2,1.69
17/03/2016,00:00:00,194.0,0.0,2.98,81.3,328.8,950.5,0.0,8.2,2.22
18/03/2016,00:00:00,242.4,0.0,3.35,75.5,324.2,953.1,0.0,7.6,2.63
19/03/2016,00:00:00,233.4,0.0,2.22,78.2,217.4,950.4,0.0,10.0,2.55
20/03/2016,00:00:00,275.3,0.0,2.63,80.8,269.4,943.8,0.0,11.3,3.12
21/03/2016,00:00:00,158.7,0.0,1.62,81.0,325.6,948.7,0.0,10.6,1.81
22/03/2016,00:00:00,260.2,0.0,1.48,71.7,239.5,951.3,0.0,11.5,3.42
23/03/2016,00:00:00,277.7,0.0,3.37,48.9,149.0,948.9,0.0,13.5,4.34
24/03/2016,00:00:00,138.0,0.0,4.77,74.9,176.9,941.3,0.0,13.7,2.53
25/03/2016,00:00:00,219.1,0.0,3.94,81.4,213.3,940.0,0.0,12.3,2.43
26/03/2016,00:00:00,162.4,0.0,2.31,85.6,248.6,944.5,0.0,11.5,1.76
27/03/2016,00:00:00,253.2,0.0,3.26,73.9,341.4,945.8,0.2,8.8,3.17
28/03/2016,00:00:00,146.7,5.0,2.39,80.1,311.1,944.4,239.8,8.1,1.47
29/03/2016,00:00:00,291.0,0.2,2.18,73.2,325.2,947.6,31.0,8.1,2.90
30/03/2016,00:00:00,181.6,0.0,1.21,79.1,303.2,951.0,0.0,10.2,2.60
31/03/2016,00:00:00,287.4,0.0,1.64,76.2,238.2,953.6,0.0,12.6,3.89
01/04/2016,00:00:00,300.7,0.0,1.61,47.9,191.0,955.2,0.0,14.0,4.37
02/04/2016,00:00:00,289.7,0.0,1.77,39.6,115.2,952.7,0.0,14.1,4.62
03/04/2016,00:00:00,272.9,0.0,1.96,43.0,128.3,950.8,0.0,14.4,4.27
04/04/2016,00:00:00,207.7,0.0,3.82,56.3,261.9,949.3,0.0,14.2,3.92
05/04/2016,00:00:00,290.1,0.0,2.96,62.2,254.6,946.3,0.0,15.7,4.36
06/04/2016,00:00:00,292.0,0.0,3.61,41.2,346.0,944.3,0.0,17.3,5.55
07/04/2016,00:00:00,294.3,0.0,2.29,43.7,244.8,944.2,0.0,17.8,5.21
08/04/2016,00:00:00,203.1,0.0,2.19,38.2,88.8,944.2,0.0,17.0,4.26
09/04/2016,00:00:00,247.6,0.0,2.46,42.3,121.1,941.0,0.0,21.1,5.42
10/04/2016,00:00:00,202.8,0.0,1.52,77.8,200.3,940.1,0.0,14.9,2.78
11/04/2016,00:00:00,302.1,0.0,2.61,68.2,203.4,941.5,0.0,14.3,4.05
12/04/2016,00:00:00,285.6,0.0,1.67,72.4,249.1,942.0,0.0,12.9,3.91
13/04/2016,00:00:00,270.8,0.0,1.51,74.3,284.0,944.2,0.0,14.0,3.52
14/04/2016,00:00:00,315.0,0.0,2.11,61.4,327.9,945.8,0.0,15.4,4.45
15/04/2016,00:00:00,289.9,0.0,2.14,32.1,234.6,946.6,0.0,20.0,5.62
16/04/2016,00:00:00,296.4,0.0,2.25,37.0,131.5,947.2,0.0,19.6,5.58
17/04/2016,00:00:00,314.5,0.0,1.46,43.2,201.7,951.0,0.0,19.5,5.35
18/04/2016,00:00:00,316.5,0.0,1.25,38.3,189.3,952.1,0.0,20.3,5.43
19/04/2016,00:00:00,328.4,0.0,1.54,18.0,300.1,951.9,0.0,21.3,6.17
20/04/2016,00:00:00,331.3,0.0,1.66,21.5,130.1,949.6,0.0,20.1,6.07
21/04/2016,00:00:00,189.8,0.0,1.70,21.8,124.1,947.8,0.0,19.3,4.14
22/04/2016,00:00:00,310.7,0.0,5.59,63.8,339.4,949.6,0.0,15.5,4.41
23/04/2016,00:00:00,315.0,0.0,5.17,58.6,302.9,949.1,0.0,14.3,4.56
24/04/2016,00:00:00,253.9,0.0,2.03,50.1,136.4,944.7,0.0,15.2,3.88
25/04/2016,00:00:00,317.0,0.0,1.32,47.9,149.4,939.4,0.0,17.1,4.67
26/04/2016,00:00:00,231.4,0.0,2.01,71.7,176.4,939.5,0.0,15.2,3.24
27/04/2016,00:00:00,323.8,0.0,2.66,66.8,297.0,940.6,0.0,13.8,3.94
28/04/2016,00:00:00,326.8,0.0,2.28,69.5,332.3,947.4,0.0,13.6,4.48
29/04/2016,00:00:00,321.8,0.0,1.70,45.2,264.2,949.1,0.0,16.2,5.20
30/04/2016,00:00:00,287.1,0.0,2.31,35.1,144.5,948.3,0.0,18.6,5.52
01/05/2016,00:00:00,277.7,0.0,3.90,63.4,245.0,943.5,0.0,17.9,4.67
02/05/2016,00:00:00,306.6,0.0,4.60,62.7,349.0,945.4,0.2,15.8,4.70
03/05/2016,00:00:00,105.1,3.6,1.66,69.2,192.4,944.8,269.8,15.8,1.61
04/05/2016,00:00:00,254.6,0.0,3.64,80.8,209.8,942.6,0.1,14.3,2.91
05/05/2016,00:00:00,166.8,2.2,1.62,78.6,241.2,941.6,119.9,13.7,2.37
06/05/2016,00:00:00,171.9,0.2,1.35,79.0,301.2,942.6,30.0,12.6,2.41
07/05/2016,00:00:00,245.0,0.0,2.01,75.7,328.6,945.5,0.0,12.8,2.80
08/05/2016,00:00:00,228.8,0.0,1.95,77.0,298.1,946.8,0.0,13.4,2.91
09/05/2016,00:00:00,175.9,0.0,2.07,78.5,127.0,947.9,0.0,13.4,2.68
10/05/2016,00:00:00,303.5,0.0,3.28,74.3,135.8,948.3,0.0,15.7,4.16
11/05/2016,00:00:00,341.6,0.0,3.21,66.5,332.2,948.0,0.0,16.3,5.06
12/05/2016,00:00:00,325.8,0.0,2.32,37.7,282.9,947.5,0.1,19.7,5.96
13/05/2016,00:00:00,273.4,3.0,1.74,49.8,189.0,945.0,89.9,22.7,4.88
14/05/2016,00:00:00,230.6,0.0,2.38,43.1,183.3,943.2,0.0,24.5,5.37
15/05/2016,00:00:00,112.8,0.2,2.50,42.0,128.8,945.1,30.0,21.9,3.17
16/05/2016,00:00:00,83.2,1.6,1.65,65.9,236.7,947.0,60.0,20.2,1.88
17/05/2016,00:00:00,267.6,0.0,1.44,74.9,268.8,948.3,0.0,16.7,4.06
18/05/2016,00:00:00,294.8,0.0,1.62,62.4,277.2,946.4,0.0,16.3,4.75
19/05/2016,00:00:00,324.0,0.0,2.16,69.0,313.8,947.0,0.0,16.2,4.57
20/05/2016,00:00:00,339.9,0.0,1.72,62.8,291.9,949.0,0.0,16.8,5.10
21/05/2016,00:00:00,290.8,0.0,1.28,48.9,154.2,948.2,0.0,18.8,4.75
22/05/2016,00:00:00,222.1,0.0,2.74,69.7,174.8,944.7,0.0,17.5,3.12
23/05/2016,00:00:00,215.3,0.0,1.58,79.8,247.2,944.2,0.0,15.2,3.16
24/05/2016,00:00:00,253.8,0.0,2.48,67.8,323.5,946.6,0.0,15.7,4.13
25/05/2016,00:00:00,319.4,0.0,1.32,48.3,218.5,947.1,0.0,19.1,5.30
26/05/2016,00:00:00,228.3,0.0,2.01,62.5,228.2,943.6,0.0,17.4,3.71
27/05/2016,00:00:00,346.6,0.0,1.71,55.8,322.1,943.6,0.0,17.6,5.20
28/05/2016,00:00:00,330.1,0.0,1.34,59.1,297.3,946.5,0.0,18.0,4.66
29/05/2016,00:00:00,345.4,0.0,1.57,63.8,305.4,947.4,0.0,18.2,5.06
30/05/2016,00:00:00,305.3,0.0,1.43,50.9,265.9,948.1,0.0,20.3,4.93
31/05/2016,00:00:00,321.1,0.0,1.85,34.8,152.4,948.5,0.0,22.6,5.97
01/06/2016,00:00:00,330.7,0.0,1.75,27.4,228.3,947.7,0.0,25.8,6.83
02/06/2016,00:00:00,325.6,0.0,1.37,25.9,207.0,948.4,0.0,26.7,6.43
03/06/2016,00:00:00,283.8,0.0,1.76,19.3,118.0,946.4,0.0,26.2,6.19
04/06/2016,00:00:00,234.4,0.0,2.23,32.6,242.8,943.7,0.0,24.7,5.65
05/06/2016,00:00:00,352.0,0.0,1.87,45.3,270.8,943.2,0.0,21.7,6.39
06/06/2016,00:00:00,344.8,0.0,2.28,46.8,307.7,946.2,0.0,21.4,6.19
07/06/2016,00:00:00,327.0,0.0,2.14,43.7,244.4,946.9,0.0,22.8,5.98
08/06/2016,00:00:00,344.2,0.0,2.47,43.0,285.8,946.5,0.0,22.8,6.91
09/06/2016,00:00:00,267.7,0.0,3.09,78.1,341.5,945.4,0.0,18.0,4.00
10/06/2016,00:00:00,352.4,0.0,3.85,62.4,345.3,944.5,0.0,16.7,5.25
11/06/2016,00:00:00,318.6,0.0,2.12,62.3,294.1,945.5,0.0,18.2,5.18
12/06/2016,00:00:00,311.4,0.0,1.49,48.6,207.7,947.8,0.0,19.6,5.38
13/06/2016,00:00:00,352.0,0.0,1.82,48.5,229.5,948.2,0.0,20.5,5.86
14/06/2016,00:00:00,275.5,0.0,1.78,46.5,121.5,944.0,0.0,21.1,4.99
15/06/2016,00:00:00,275.1,0.0,3.58,66.7,241.7,939.0,0.0,20.9,4.70
16/06/2016,00:00:00,348.8,0.0,2.07,56.0,225.0,943.5,0.0,20.7,5.96
17/06/2016,00:00:00,350.9,0.0,2.90,52.8,272.3,947.4,0.0,22.7,6.54
18/06/2016,00:00:00,346.6,0.0,3.06,45.9,341.3,948.4,0.0,24.4,7.20
19/06/2016,00:00:00,332.3,0.0,2.75,37.9,335.0,946.5,0.0,27.3,7.50
20/06/2016,00:00:00,333.8,0.0,2.23,29.4,282.2,945.2,0.0,29.8,7.81
21/06/2016,00:00:00,343.2,0.0,1.81,23.2,163.3,946.6,0.0,30.0,7.73
22/06/2016,00:00:00,337.3,0.0,3.74,39.6,331.1,947.0,0.0,27.9,8.19
23/06/2016,00:00:00,347.0,0.0,4.27,53.2,347.3,945.8,0.0,25.7,7.27
24/06/2016,00:00:00,350.1,0.0,3.85,61.3,345.6,945.2,0.0,24.6,6.76
25/06/2016,00:00:00,338.4,0.0,4.56,50.3,341.0,943.0,0.0,26.5,7.62
26/06/2016,00:00:00,329.3,0.0,1.82,53.0,163.7,942.4,0.0,25.4,6.06
27/06/2016,00:00:00,320.4,0.0,1.93,72.0,185.9,944.3,0.0,20.3,4.67
28/06/2016,00:00:00,292.4,0.0,1.78,75.0,321.9,944.7,0.0,22.6,4.58
29/06/2016,00:00:00,331.2,0.0,1.78,47.8,308.0,942.9,0.0,26.6,6.48
30/06/2016,00:00:00,336.0,0.0,3.08,66.3,324.4,943.5,0.0,23.1,5.89
01/07/2016,00:00:00,335.5,0.0,2.49,71.9,337.5,946.9,0.0,21.9,5.46
02/07/2016,00:00:00,343.4,0.0,3.35,63.7,343.2,947.2,0.0,23.4,6.23
03/07/2016,00:00:00,341.2,0.0,3.58,56.2,345.4,945.2,0.0,24.3,6.81
04/07/2016,00:00:00,339.6,0.0,3.44,60.9,344.4,943.5,0.0,24.2,6.46
05/07/2016,00:00:00,291.1,0.0,3.44,78.1,345.5,942.1,0.0,22.4,4.92
06/07/2016,00:00:00,346.9,0.0,3.92,72.8,343.9,942.7,0.0,22.7,5.59
07/07/2016,00:00:00,335.1,0.0,3.61,69.2,344.0,943.0,0.0,22.9,5.73
08/07/2016,00:00:00,339.5,0.0,2.87,57.6,327.8,943.0,0.0,23.0,6.30
09/07/2016,00:00:00,341.4,0.0,4.26,72.6,341.5,945.3,0.0,21.9,5.51
10/07/2016,00:00:00,351.1,0.0,4.25,65.0,343.5,945.5,0.0,21.6,6.10
11/07/2016,00:00:00,348.9,0.0,4.40,59.4,343.9,944.9,0.0,22.2,6.46
12/07/2016,00:00:00,345.7,0.0,4.64,59.5,344.6,944.6,0.0,22.6,6.53
13/07/2016,00:00:00,344.0,0.0,5.34,59.6,347.3,944.2,0.0,22.6,6.93
14/07/2016,00:00:00,344.9,0.0,4.23,54.1,335.8,944.5,0.0,23.7,7.30
15/07/2016,00:00:00,340.5,0.0,4.74,41.6,346.0,943.0,0.0,25.5,8.33
16/07/2016,00:00:00,338.2,0.0,2.62,27.0,311.2,942.5,0.0,29.0,8.17
17/07/2016,00:00:00,333.1,0.0,2.06,48.1,244.9,944.1,0.0,26.5,6.45
18/07/2016,00:00:00,345.9,0.0,2.91,62.2,343.0,943.9,0.0,22.3,6.06
19/07/2016,00:00:00,344.0,0.0,2.81,65.1,326.7,942.4,0.0,22.0,5.86
20/07/2016,00:00:00,304.1,0.0,3.94,73.3,341.6,940.4,0.0,21.3,4.91